Location: Edmonton
(53.5500°N, 113.5000°W)
Time: 02:40:22
(UTC-06:00)

Daily predictions for brighter satellites

Satellite Brightness Start Highest point End
(mag) Time Altitude Azimuth Time Altitude Azimuth Time Altitude Azimuth
Cosmos 1607 4.1 00:00:01 10° NW 00:06:12 74° NE 00:12:21 10° SE
Cosmos 389 Rocket 2.5 00:03:09 10° N 00:06:46 75° ENE 00:09:24 17° SSE
Lacrosse 4 Rocket 2.2 00:03:36 10° NW 00:07:48 45° WSW 00:11:13 15° S
SeaSat 1 2.5 00:06:12 14° SE 00:10:31 88° ENE 00:15:31 10° NNW
BREEZE-M DEB (TANK) 3.8 00:11:12 13° SE 00:11:12 13° SE 00:12:38 10° ESE
NOSS 3-2 (C) 4.4 00:04:24 10° NW 00:11:29 62° NNE 00:19:13 10° ESE
Meteor 2-3 Rocket 4.5 00:07:29 14° SSE 00:11:56 39° E 00:17:11 10° NNE
USA 234 3.7 00:05:44 10° E 00:12:12 68° N 00:18:42 10° WNW
Cosmos 1709 Rocket 4.0 00:07:17 10° S 00:13:24 87° E 00:19:33 10° NNE
CZ-4B R/B 2.8 00:10:53 12° SE 00:13:32 29° ENE 00:16:29 10° N
Cosmos 1125 Rocket 3.5 00:17:29 10° SSW 00:22:46 72° ESE 00:28:05 10° NNE
GEOS 3 Rocket 3.6 00:19:33 12° SE 00:24:22 83° SW 00:29:35 10° NW
Cosmos 1933 4.3 00:21:44 10° NNW 00:25:35 42° W 00:28:58 13° SSW
Cosmos 2227 Rocket 2.5 00:22:37 10° SW 00:28:17 73° NW 00:33:59 10° NNE
Meteor 2-10 Rocket 4.0 00:23:34 10° N 00:29:05 64° ENE 00:33:45 16° SSE
Cosmos 158 Rocket 4.1 00:26:43 10° NNW 00:32:02 70° WSW 00:36:01 17° SSE
NOSS 3-2 (A) 4.1 00:26:45 10° NW 00:33:58 80° NE 00:41:51 10° SE
COSMOS 2455 3.9 00:30:33 10° NW 00:35:53 33° WSW 00:40:19 14° S
Cosmos 1782 3.7 00:33:05 10° N 00:36:53 41° ENE 00:39:44 16° SE
SL-16 R/B 3.2 00:32:29 10° NW 00:37:38 36° WSW 00:41:56 14° S
ERBS 2.3 00:34:50 10° SW 00:38:18 64° SSE 00:41:45 10° ENE
Cosmos 2333 Rocket 4.3 00:34:50 10° WNW 00:38:19 17° W 00:41:48 10° SW
ATLAS 5 CENTAUR R/B 4.1 00:33:39 10° NW 00:38:30 31° N 00:43:44 10° ENE
CZ-4C R/B 2.8 00:32:14 10° NW 00:39:01 90° NE 00:46:38 10° SE
Landsat 5 4.0 00:38:03 16° SE 00:41:31 60° ENE 00:46:01 10° N
Cosmos 372 Rocket 4.1 00:38:20 15° S 00:42:43 65° ESE 00:47:54 10° NNE
H-2A R/B 3.3 00:39:09 10° NNE 00:43:06 38° E 00:45:48 19° SSE
Aureole 2 Rocket 2.8 00:41:24 10° NW 00:44:24 46° WSW 00:46:15 21° S
Cosmos 44 Rocket 3.8 00:41:13 15° S 00:45:16 45° ESE 00:50:16 10° NE
NOSS 3-1 (A) 4.2 00:40:33 10° WSW 00:46:42 60° NNW 00:53:43 10° NE
CZ-2C R/B 4.2 00:42:51 10° NE 00:46:54 22° E 00:50:19 12° SE
Cosmos 1340 Rocket 3.5 00:46:11 19° SSE 00:48:31 40° E 00:52:13 10° NNE
Terra 4.0 00:45:58 10° SW 00:49:11 18° W 00:52:24 10° NW
Cosmos 2184 Rocket 4.0 00:46:39 16° S 00:51:43 76° E 00:57:54 10° NNE
FALCON 9 R/B 4.3 00:42:55 10° WSW 00:53:12 20° SW 00:56:49 15° S
COS B Rocket 4.3 00:50:05 10° NNW 00:53:35 39° W 00:56:57 13° SSW
Cosmos 1733 Rocket 3.6 00:51:25 19° SSE 00:54:20 47° E 00:58:38 10° NNE
Cosmos 1869 Rocket 4.0 00:50:47 13° SSW 00:54:46 59° WNW 00:59:12 10° N
Cosmos 2297 Rocket 2.6 00:49:30 10° SW 00:55:08 66° NW 01:00:48 10° NNE
Helios 1A Rocket 4.2 00:52:04 10° NE 00:55:45 29° E 00:58:10 17° SE
CZ-4C R/B 3.2 00:53:38 21° S 00:55:50 64° WSW 00:59:28 10° NNW
Cosmos 1943 3.3 00:54:12 10° NNW 00:59:56 78° ENE 01:04:54 14° SE
Cosmos 1378 Rocket 4.4 00:55:51 10° N 01:00:04 42° ENE 01:03:20 15° SE
Coronas F rocket 2.1 01:04:13 26° SE 01:05:14 37° E 01:07:46 10° NNE
Cosmos 1606 3.3 01:03:36 10° N 01:07:22 50° ENE 01:09:59 18° SE
ATLAS 2AS CENTAUR R/B 3.2 01:01:19 10° SW 01:09:08 82° NW 01:17:22 10° NE
Okean 1-7 4.4 01:05:47 10° NNW 01:09:29 29° W 01:12:38 13° SW
Meteor 1-27 Rocket 4.0 01:04:12 10° N 01:10:04 67° ENE 01:14:41 16° SSE
ALOS 2 2.8 01:07:31 20° S 01:10:27 60° WSW 01:14:51 10° NNW
Cosmos 1689 Rocket 2.4 01:09:16 24° S 01:11:05 66° WSW 01:14:23 10° NNW
Cosmos 1603 4.2 01:06:25 10° NW 01:11:51 47° WSW 01:15:45 18° S
Cosmos 2341 Rocket 4.5 01:10:23 17° SSE 01:15:11 52° E 01:21:20 10° NNE
ATLAS 3B R/B 4.1 01:10:23 10° WNW 01:15:29 22° WSW 01:19:45 12° SSW
Uosat 12 SS-18 rocket 4.4 01:17:01 18° SSW 01:20:23 50° SE 01:24:37 10° NE
Meteor 2-6 Rocket 4.4 01:16:14 10° NNW 01:22:04 79° W 01:26:30 19° S
Cosmos 1862 4.3 01:25:52 19° SSE 01:28:16 37° E 01:32:00 10° NNE
Cosmos 1892 2.8 01:27:25 20° SSW 01:29:53 71° WNW 01:33:42 10° N
Cosmos 1408 3.8 01:30:02 18° SE 01:32:13 32° E 01:35:36 10° NNE
Okean 2 Rocket 4.3 01:32:28 16° SE 01:35:29 32° E 01:39:30 10° NNE
Cosmos 2084 Rocket 3.2 01:34:00 19° SSW 01:36:33 58° SE 01:40:18 10° NE
Cosmos 1674 Rocket 4.1 01:32:56 10° NNW 01:37:13 50° W 01:40:06 20° SSW
Elektron 3 3.8 01:36:11 10° NW 01:39:03 81° NE 01:42:31 10° ESE
Cosmos 921 Rocket 3.0 01:38:49 22° S 01:41:27 67° ESE 01:45:41 10° NNE
Cosmos 44 3.7 01:38:49 18° SSW 01:42:48 58° SE 01:48:10 10° NE
NOSS 2-3 (E) 4.2 01:37:54 10° SW 01:43:03 85° NW 01:49:23 10° NE
Cosmos 1238 Rocket 2.8 01:40:47 10° NNW 01:44:58 67° W 01:47:00 24° S
CZ-4B R/B 2.9 01:44:39 17° SW 01:46:24 25° W 01:49:17 10° NW
SeaSat 1 4.2 01:46:00 13° SW 01:48:40 19° WSW 01:52:09 10° WNW
Cosmos 1975 Rocket 3.1 01:44:18 10° N 01:48:44 81° ENE 01:51:47 19° SSE
Nadezhda 3 Rocket 4.3 01:42:55 10° NNW 01:48:58 57° W 01:53:39 18° SSW
CENTAUR R/B 3.4 01:42:40 10° NW 01:50:06 69° NE 01:58:14 10° ESE
Cosmos 1825 2.7 01:48:13 21° SSE 01:50:28 50° E 01:54:11 10° NNE
ASTEX 1 4.1 01:47:57 10° N 01:52:37 45° WNW 01:56:27 15° SW
Cosmos 1356 Rocket 3.6 01:50:10 19° SSW 01:52:56 64° WNW 01:57:03 10° N
Cosmos 1867 3.7 01:47:42 10° NW 01:53:05 58° SW 01:57:23 16° SSE
USA 234 3.2 01:48:35 10° ESE 01:55:09 87° SSW 02:01:45 10° WNW
CZ-2C R/B 3.3 01:53:46 17° SSE 01:58:20 87° WSW 02:03:52 10° NNW
Cosmos 1908 Rocket 3.5 01:59:02 21° SSW 02:01:57 83° WNW 02:06:20 10° N
NOSS 3-2 (C) 4.2 01:55:28 10° NW 02:02:34 54° SW 02:09:36 13° SSE
Cosmos 1242 Rocket 3.2 02:00:49 10° N 02:04:15 49° ENE 02:06:54 15° SE
Cosmos 1727 Rocket 4.2 01:58:43 10° N 02:04:59 70° ENE 02:10:30 13° SSE
Intercosmos 25 4.5 01:59:06 16° SSW 02:05:15 81° W 02:09:59 10° N
EROS-A1 4.5 02:09:08 27° SE 02:10:00 46° ENE 02:12:05 10° N
Okean 3 3.8 02:06:34 10° NNW 02:10:48 56° W 02:13:36 20° SSW
Cosmos 1782 4.5 02:09:54 10° NW 02:13:03 23° W 02:15:24 14° SW
Cosmos 2227 Rocket 4.4 02:08:51 10° W 02:13:20 23° NNW 02:17:51 10° NNE
Cosmos 2263 Rocket 2.6 02:09:40 18° S 02:13:42 52° ESE 02:19:13 10° NE
ERBS 3.3 02:11:51 10° W 02:15:15 50° N 02:18:39 10° ENE
Cosmos 724 4.4 02:12:27 10° NW 02:18:34 88° SW 02:24:46 10° SE
H-2A R/B 4.0 02:14:56 10° N 02:18:36 31° WNW 02:22:24 10° SW
ATLAS 5 CENTAUR R/B 3.1 02:18:42 10° NW 02:24:17 55° NNE 02:30:20 10° ESE
Cosmos 44 Rocket 4.3 02:21:47 10° WSW 02:26:52 50° NW 02:32:00 10° NE
CZ-4C R/B 3.7 02:21:12 10° WNW 02:27:09 31° WSW 02:31:59 16° SSW
CZ-2C R/B 2.7 02:22:29 10° NNE 02:27:44 70° WNW 02:31:50 16° SSW
NOSS 3-4 (A) 3.7 02:25:32 16° SSW 02:30:44 62° SE 02:37:19 10° NE
NOSS 3-4 (C) 3.7 02:25:39 16° SSW 02:30:50 62° SE 02:37:24 10° NE
Helios 1A Rocket 4.0 02:27:14 10° N 02:31:06 38° WNW 02:34:29 13° SW
COSMOS 2406 3.2 02:28:32 10° NNW 02:34:21 80° WSW 02:40:06 10° SSE
Cosmos 2151 Rocket 4.1 02:31:17 16° SSE 02:34:40 54° E 02:39:03 10° NNE
Cosmos 1190 Rocket 4.0 02:30:26 10° NNW 02:35:41 75° WSW 02:40:28 12° SSE
Coronas F rocket 4.0 02:36:00 10° W 02:37:14 12° WNW 02:38:29 10° NW
Cosmos 2297 Rocket 4.5 02:35:57 10° W 02:40:18 22° NNW 02:44:39 10° NNE
RESURS DK-1 2.5 02:45:42 18° SSW 02:48:38 62° ESE 02:52:46 10° NE
Cosmos 2082 Rocket 4.2 02:43:50 10° NNW 02:48:57 32° NE 02:54:02 10° ESE
Cosmos 407 Rocket 3.5 02:44:12 10° NNW 02:49:20 71° WSW 02:54:24 10° SSE
Abrixas rocket 3.7 02:50:30 19° S 02:51:22 21° SSE 02:53:58 10° ESE
Cosmos 1371 Rocket 4.1 02:47:27 16° SSW 02:51:44 78° ESE 02:57:06 10° NNE
Cosmos 2056 Rocket 3.8 02:48:29 16° S 02:52:40 62° ESE 02:57:49 10° NNE
Landsat 4 3.7 02:50:08 13° SSE 02:53:28 88° ENE 02:57:19 10° NNW
SL-27 R/B 2.6 02:56:12 10° NNW 02:59:50 61° WSW 03:02:56 14° S
GP-B 3.9 02:55:32 10° N 02:59:50 47° E 03:04:08 10° SSE
Cosmos 676 Rocket 4.0 02:54:39 10° NNW 02:59:51 76° WSW 03:05:01 10° SSE
ATLAS 2AS CENTAUR R/B 4.2 02:53:35 10° W 03:01:13 45° NNW 03:09:01 10° ENE
BREEZE-M DEB (TANK) 4.4 02:42:14 10° WSW 03:06:09 70° S 03:11:10 10° E
Meteor 2-19 Rocket 4.5 03:01:53 14° S 03:07:18 89° W 03:13:31 10° NNE
Cosmos 1408 4.2 03:04:33 12° SW 03:07:28 27° WNW 03:10:44 10° N
SL-08 R/B 3.5 03:02:54 10° SSE 03:07:50 81° ENE 03:12:43 10° NNW
NPP 4.4 03:03:10 10° NNE 03:08:23 48° E 03:13:34 10° S
Okean 2 Rocket 4.1 03:09:50 13° SW 03:13:33 36° WNW 03:17:43 10° N
Meteor 1-14 Rocket 4.5 03:08:57 14° SSW 03:14:07 71° WNW 03:19:58 10° N
Iridium 4 Rocket 3.6 03:11:07 10° N 03:15:39 57° W 03:20:00 13° SSW
ERS-2 3.4 03:13:04 10° NNE 03:16:31 34° E 03:19:56 10° SSE
SL-16 R/B 3.6 03:10:42 10° SE 03:16:37 48° ENE 03:22:32 10° N
Cosmos 1184 Rocket 3.9 03:18:50 14° SW 03:21:23 35° WNW 03:24:33 10° N
CZ-2D R/B 4.2 03:19:38 10° NE 03:23:47 22° E 03:27:56 10° SE
JB-3 4.3 03:20:59 10° NNE 03:24:52 81° WNW 03:28:15 13° SSW
Cosmos 1954 Rocket 4.1 03:20:22 10° NNW 03:25:29 61° WSW 03:30:34 10° S
Cosmos 614 Rocket 4.3 03:20:26 10° NNW 03:25:39 70° ENE 03:30:46 10° SE
Cosmos 1825 4.2 03:23:39 10° WSW 03:26:25 19° WNW 03:29:11 10° NNW
Cosmos 1833 Rocket 4.1 03:23:49 10° NNW 03:29:09 41° NE 03:34:28 10° ESE
Cosmos 1536 4.4 03:28:01 10° SSE 03:31:37 31° E 03:35:13 10° NNE
Cosmos 1812 3.3 03:27:54 10° NNW 03:31:38 44° W 03:34:59 12° SSW
Cosmos 1300 Rocket 3.6 03:27:55 12° S 03:32:00 83° E 03:36:25 10° NNE
USA 161 2.2 03:33:52 10° SSE 03:36:44 55° ENE 03:39:42 10° N
Cosmos 1624 Rocket 4.3 03:31:55 11° SW 03:36:50 63° WNW 03:42:05 10° NNE
USA 234 3.7 03:32:36 10° SSE 03:38:41 40° SW 03:44:47 10° WNW
Cosmos 1242 Rocket 4.5 03:36:49 10° NW 03:38:57 15° W 03:41:05 10° SW
Meteor 1-19 Rocket 4.4 03:34:13 10° NNW 03:40:03 86° ENE 03:45:55 10° SSE
CENTAUR R/B 3.3 03:33:31 10° NW 03:40:49 49° WSW 03:48:36 10° SSE
Cosmos 1174 4.1 03:38:12 10° NW 03:42:26 65° NE 03:45:50 10° SE
IRAS Rocket 4.3 03:39:22 10° NNE 03:44:56 84° ESE 03:50:30 10° SSW
Cosmos 1892 Rocket 4.0 03:41:03 10° N 03:45:24 62° ENE 03:49:42 10° SSE
Gbstr 26 Del rocket 4.2 03:42:49 11° SSW 03:45:41 22° SSE 03:48:40 10° E
Cosmos 909 Rocket 4.5 03:40:32 10° SW 03:47:10 88° NW 03:55:19 10° NE
EO 1 Del DPAF 4.1 03:45:38 10° SSE 03:49:26 54° ENE 03:53:16 10° N
Meteor 1-20 Rocket 4.4 03:45:26 10° SSW 03:51:11 69° WNW 03:56:57 10° N
ARIANE 5 R/B 3.5 03:47:08 10° NNE 03:51:52 41° E 03:56:35 10° SSE
ERBS 3.3 03:49:03 10° WNW 03:52:28 52° NNE 03:55:52 10° E
Cosmos 1844 Rocket 2.9 03:48:19 10° SSW 03:53:57 70° ESE 03:59:38 10° NE
IRS-P3 4.3 03:52:08 10° NNE 03:57:29 68° WNW 04:02:47 10° SSW
Cosmos 2263 Rocket 3.2 03:52:31 10° WSW 03:57:51 40° NW 04:03:12 10° NNE
Cosmos 1452 Rocket 3.6 03:53:10 10° SSW 03:58:26 90° WNW 04:03:44 10° NNE
Cosmos 1461 4.3 03:56:28 10° S 04:00:39 33° ESE 04:04:45 10° ENE
Resurs 1-4 Rocket 3.3 03:56:26 10° NNE 04:01:26 39° E 04:06:23 10° SSE
CBERS-1 4.1 03:57:00 10° NNE 04:02:10 81° WNW 04:07:19 10° SSW
Meteor 1-11 Rocket 4.0 03:59:21 10° S 04:05:19 84° ESE 04:11:20 10° NNE
Cosmos 1420 Rocket 4.4 04:02:22 10° S 04:07:36 63° ESE 04:12:50 10° NNE
COSMOS 2487 3.2 04:05:06 10° NW 04:08:27 36° WSW 04:11:47 10° S
Cosmos 1844 4.0 04:02:59 10° SSW 04:08:39 69° ESE 04:14:25 10° NE
ATLAS 5 CENTAUR R/B 2.5 04:03:29 10° NW 04:09:08 52° SW 04:15:12 10° SSE
Cosmos 1400 Rocket 3.5 04:07:51 10° S 04:11:40 52° E 04:15:33 10° NNE
ADEOS 3.7 04:07:14 10° NNE 04:12:31 88° ESE 04:17:44 10° SSW
USA 229 DEB 4.3 04:05:44 10° NW 04:12:49 67° NE 04:19:57 10° ESE
USA 229 4.3 04:05:50 10° NW 04:12:54 66° NE 04:20:03 10° ESE
Cosmos 1140 Rocket 4.0 04:08:22 10° NW 04:13:07 38° WSW 04:17:49 10° S
Cosmos 1633 2.8 04:09:58 10° S 04:13:35 69° E 04:17:13 10° NNE
Meteor 1-23 Rocket 4.3 04:09:53 10° NNW 04:15:38 74° W 04:21:16 10° S
Okean 1 Rocket 3.7 04:13:08 10° SW 04:17:24 44° WNW 04:21:44 10° N
Cosmos 1934 Rocket 4.1 04:14:40 10° SSW 04:20:51 67° WNW 04:26:58 10° N
Cosmos 2278 Rocket 2.6 04:15:38 10° SSW 04:21:12 61° ESE 04:26:48 10° NE
UNK 3.8 04:17:11 10° S 04:21:49 77° WSW 04:26:31 10° NNW
NOSS 3-4 (A) 4.4 04:15:34 10° WSW 04:21:55 52° NNW 04:28:33 10° NE
NOSS 3-4 (C) 4.3 04:15:39 10° WSW 04:22:00 52° NNW 04:28:38 10° NE
